TimeEST,TemperatureF,Dew PointF,Humidity,Sea Level PressureIn,VisibilityMPH,Wind Direction,Wind SpeedMPH,Gust SpeedMPH,PrecipitationIn,Events,Conditions,WindDirDegrees,DateUTC
12:14 AM,30.9,21.2,67,30.34,10.0,North,6.9,-,N/A,,Clear,10,2013-02-22 05:14:00
12:34 AM,30.9,21.0,67,-9999,10.0,NNE,6.9,-,N/A,,Clear,20,2013-02-22 05:34:00
12:54 AM,30.7,20.8,67,30.34,10.0,NNE,5.8,-,N/A,,Clear,20,2013-02-22 05:54:00
1:14 AM,30.4,20.5,67,30.34,10.0,North,6.9,-,N/A,,Clear,10,2013-02-22 06:14:00
1:34 AM,30.7,20.7,66,30.34,10.0,NNE,8.1,-,N/A,,Clear,20,2013-02-22 06:34:00
1:54 AM,30.2,21.0,69,30.32,10.0,NNE,8.1,-,N/A,,Clear,30,2013-02-22 06:54:00
2:14 AM,29.8,21.2,70,30.33,10.0,NNE,5.8,-,N/A,,Clear,20,2013-02-22 07:14:00
2:54 AM,29.3,21.0,71,30.35,10.0,NNE,5.8,-,N/A,,Clear,30,2013-02-22 07:54:00
5:53 AM,28.4,21.2,74,30.41,10.0,NNE,5.8,-,N/A,,Overcast,20,2013-02-22 10:53:00
5:54 AM,28.8,20.8,72,30.40,10.0,Calm,Calm,-,N/A,,Clear,0,2013-02-22 10:54:00
6:14 AM,28.6,20.5,72,30.42,10.0,Calm,Calm,-,N/A,,Clear,0,2013-02-22 11:14:00
6:34 AM,28.4,20.8,73,30.40,10.0,NE,5.8,-,N/A,,Clear,50,2013-02-22 11:34:00
6:41 AM,28.4,21.0,74,30.40,10.0,ENE,5.8,-,N/A,,Clear,60,2013-02-22 11:41:00
6:53 AM,28.4,19.4,69,30.40,10.0,NE,5.8,-,N/A,,Overcast,50,2013-02-22 11:53:00
7:53 AM,28.4,21.2,74,30.43,10.0,NE,5.8,-,N/A,,Overcast,50,2013-02-22 12:53:00
8:51 AM,30.2,21.2,69,30.42,10.0,East,6.9,-,N/A,,Overcast,80,2013-02-22 13:51:00
9:55 AM,32.0,21.2,64,30.38,10.0,East,10.4,-,N/A,,Overcast,90,2013-02-22 14:55:00
10:51 AM,33.8,24.8,70,30.37,10.0,SE,8.1,-,N/A,,Overcast,130,2013-02-22 15:51:00
11:58 AM,35.6,24.8,65,30.37,10.0,ESE,5.8,-,N/A,,Overcast,110,2013-02-22 16:58:00
12:50 PM,35.6,26.6,70,30.36,10.0,SE,3.5,-,N/A,,Overcast,140,2013-02-22 17:50:00
1:54 PM,35.6,26.6,70,30.35,10.0,Calm,Calm,-,N/A,,Overcast,0,2013-02-22 18:54:00
2:55 PM,35.6,26.6,70,30.34,10.0,Calm,Calm,-,N/A,,Mostly Cloudy,0,2013-02-22 19:55:00
3:55 PM,35.6,28.4,75,30.33,10.0,Calm,Calm,-,N/A,,Overcast,0,2013-02-22 20:55:00
4:50 PM,35.6,28.4,75,30.32,10.0,Calm,Calm,-,N/A,,Overcast,0,2013-02-22 21:50:00
5:55 PM,33.8,32.0,93,30.33,10.0,Calm,Calm,-,N/A,Rain,Light Rain,0,2013-02-22 22:55:00
6:52 PM,32.0,32.0,100,30.32,10.0,Calm,Calm,-,N/A,,Mostly Cloudy,0,2013-02-22 23:52:00
7:53 PM,33.8,33.8,100,30.31,10.0,Calm,Calm,-,N/A,,Drizzle,0,2013-02-23 00:53:00
8:50 PM,33.8,33.8,100,30.30,10.0,Calm,Calm,-,N/A,,Overcast,0,2013-02-23 01:50:00
9:56 PM,34.3,34.3,100,30.29,7.0,Calm,Calm,-,N/A,,Overcast,0,2013-02-23 02:56:00
10:16 PM,34.2,34.2,100,30.28,7.0,Calm,Calm,-,N/A,Rain,Light Rain,0,2013-02-23 03:16:00
10:36 PM,34.3,34.3,100,30.28,7.0,Calm,Calm,-,N/A,,Light Drizzle,0,2013-02-23 03:36:00
10:56 PM,34.3,34.3,100,30.27,7.0,Calm,Calm,-,N/A,Rain,Light Rain,0,2013-02-23 03:56:00
11:16 PM,34.7,34.7,100,30.26,5.0,Calm,Calm,-,N/A,,Light Drizzle,0,2013-02-23 04:16:00
11:36 PM,34.7,34.7,100,30.27,5.0,Calm,Calm,-,N/A,,Light Drizzle,0,2013-02-23 04:36:00
11:56 PM,34.7,34.7,100,30.26,5.0,Calm,Calm,-,N/A,,Light Drizzle,0,2013-02-23 04:56:00